Location: Tierz
(42.1336°N, 0.3549°W)
Time: 16:00:54
(UTC+00:00)

Cosmos 2263 Rocket - Pass Details

Date: 29 October 2020
Orbit: 822 x 850 km, 71.0° (Epoch: 23 November)

Event Time Altitude Azimuth Distance (km) Brightness Sun altitude
Rises 20:21:54 0° 330° (NNW) 3,421 5.9 -38.0°
Reaches altitude 10° 20:24:25 10° 326° (NW) 2,483 5.1 -38.4°
Enters shadow 20:26:47 25° 316° (NW) 1,665 4.1 -38.8°
